Theta_e
293 284 282 282 284 285 287 287 286 287 286 286 285 284 283 283 284 288 289 292 293 290 290 292 293 293 294 296 298 300 302 301 299 299 300 302 304 307 310 311 312 312 312 320 325 329 330 330 330 330 331 332 332 333 334 334 334 335 334 335 332 331 332 331 329 329 328 327 327 327 327 327 328 328 330 331 331 331 332 333 333 333 332 331 331 331
291 283 283 286 287 287 287 288 288 287 286 285 284 284 283 285 283 287 288 291 295 290 289 293 292 293 294 296 297 299 299 299 300 300 300 301 303 305 307 309 311 313 316 322 323 326 329 329 330 330 330 330 329 331 332 333 334 334 335 334 334 335 332 331 330 330 329 329 328 327 328 329 329 329 329 329 331 331 333 333 334 333 333 333 332 330
284 282 285 287 289 289 288 287 288 286 284 285 285 284 283 284 287 289 290 292 293 292 289 292 291 293 296 298 301 301 300 301 303 303 303 304 304 304 306 309 312 314 314 315 318 322 325 329 329 329 328 329 330 332 331 332 333 334 334 335 335 336 335 333 331 331 330 331 330 330 331 331 331 333 333 332 332 333 333 334 334 335 334 334 334 333
280 284 287 289 289 287 286 287 286 285 284 284 284 283 281 285 283 282 288 289 291 290 290 291 290 292 295 297 298 300 301 303 303 304 305 307 307 307 307 309 310 313 314 313 316 319 322 327 327 328 328 329 329 330 332 331 331 332 332 334 334 335 336 336 335 331 333 332 333 333 332 333 333 332 334 334 334 334 334 334 335 336 336 335 334 333
282 286 290 289 288 286 284 286 284 283 283 285 284 283 284 284 285 284 284 288 289 291 291 291 289 289 292 292 293 297 300 301 304 304 306 308 310 311 312 314 314 313 314 314 314 316 319 321 324 326 327 329 327 328 328 329 330 331 331 332 334 334 335 336 336 335 335 335 333 333 333 333 333 334 333 333 333 334 334 334 335 335 336 335 334 334
285 289 291 287 287 287 285 283 284 283 281 284 286 285 285 286 284 285 288 285 285 285 290 289 282 284 290 291 292 295 297 297 301 304 305 307 309 311 310 311 314 315 316 315 314 315 316 317 320 323 325 325 326 326 328 330 331 331 331 332 333 333 334 335 336 336 335 334 333 333 330 327 329 329 330 329 330 332 333 333 336 338 337 336 335 335
285 290 288 285 286 286 285 284 285 284 281 282 282 287 286 286 285 286 285 284 281 280 289 290 282 281 288 289 292 294 295 296 298 302 305 307 308 309 309 308 306 307 308 310 311 311 313 316 317 318 321 325 326 328 330 330 331 331 331 331 331 332 332 334 335 336 334 333 333 333 332 331 331 329 330 333 334 334 335 336 335 336 338 337 336 335
286 287 288 286 285 283 283 283 286 287 283 280 288 288 287 285 285 285 285 284 284 288 287 287 288 282 282 288 293 294 294 295 297 298 302 303 303 300 300 301 301 302 302 302 302 303 305 308 313 317 319 322 324 326 328 329 329 329 329 330 330 331 331 332 334 334 335 333 332 332 332 331 331 331 330 332 333 335 335 335 335 336 336 337 337 337
285 284 285 284 284 282 280 283 286 288 284 285 289 289 286 286 286 285 284 284 285 284 282 286 289 283 282 288 292 293 290 293 295 295 294 295 296 296 297 298 299 299 299 299 299 300 301 302 305 308 316 322 323 323 325 326 328 328 329 329 330 331 331 331 332 332 333 333 333 332 332 331 331 332 332 333 333 333 334 333 334 335 335 336 337 337
286 286 286 287 285 281 284 286 288 288 284 289 289 290 289 288 285 284 283 282 282 281 279 283 286 280 281 286 287 291 290 288 289 290 291 292 293 294 294 296 297 299 299 299 299 300 301 301 302 304 306 308 317 323 324 326 327 328 328 326 324 325 329 331 330 330 331 333 332 332 332 331 331 332 331 332 331 331 333 332 332 333 334 334 334 336
288 292 292 287 285 286 285 287 287 287 287 288 289 287 287 287 285 284 284 283 282 277 279 280 285 283 278 284 287 285 284 288 289 289 290 291 292 293 294 294 295 296 297 298 298 299 300 301 301 302 302 303 306 311 315 319 323 326 325 325 325 325 327 329 331 331 330 331 332 331 331 331 330 331 331 330 329 330 331 330 331 331 332 332 333 333
287 288 286 288 291 289 289 286 287 287 289 287 286 285 285 283 285 283 281 282 276 275 281 283 282 285 277 281 284 287 288 288 288 287 288 289 290 291 293 294 294 295 296 297 297 298 298 299 300 300 300 301 302 304 307 310 314 317 323 325 324 325 325 328 330 332 331 331 331 331 331 330 330 330 330 329 329 330 330 329 329 330 331 331 332 332
282 283 286 287 291 287 285 286 287 290 289 288 286 284 280 277 279 275 278 274 276 275 280 283 282 280 281 281 284 285 287 288 289 288 288 289 290 291 292 293 294 295 296 296 296 297 297 298 298 299 300 300 301 301 303 304 309 312 313 316 318 321 326 327 329 329 330 330 330 331 331 331 330 330 330 330 330 331 330 330 330 329 329 329 329 330
279 284 285 285 290 288 286 280 280 281 284 285 282 281 278 274 273 271 274 277 278 281 284 282 283 279 282 282 286 285 287 289 289 290 290 290 290 291 291 293 293 294 295 295 296 296 296 296 297 298 299 299 300 300 301 301 303 306 307 310 312 314 318 324 328 328 328 329 330 330 331 330 330 330 330 330 330 330 330 331 330 330 329 329 329 329
270 274 280 282 279 286 285 283 281 281 282 284 287 284 280 277 273 270 274 272 274 276 280 282 279 277 278 278 286 287 288 289 290 290 291 291 291 292 292 292 293 293 294 295 295 295 296 296 297 297 298 298 298 299 300 300 301 303 303 304 306 309 312 315 319 325 326 327 328 329 330 330 330 330 330 330 330 330 330 331 330 331 331 330 330 330
273 274 281 287 285 286 282 285 287 285 285 287 287 289 281 277 281 274 278 277 277 278 277 279 279 283 281 287 288 289 288 288 289 289 290 289 291 291 291 291 291 292 293 294 294 295 296 296 297 297 297 297 297 298 298 299 300 301 301 302 303 303 305 310 313 316 320 325 328 328 329 330 329 328 329 330 330 330 331 331 331 331 331 331 331 331
275 274 283 285 287 284 284 285 286 286 276 281 284 278 280 285 282 280 280 281 280 279 276 284 281 282 287 287 285 284 285 285 287 288 288 289 290 290 290 290 291 292 292 293 294 294 295 296 296 296 296 297 297 297 297 297 298 299 300 300 301 301 303 304 305 309 314 318 322 326 328 328 329 329 329 329 329 330 331 330 331 331 332 332 331 331
272 273 283 281 279 285 287 286 287 287 286 284 277 279 285 288 286 281 275 277 277 274 275 280 278 279 279 277 283 282 282 283 285 286 287 288 289 288 289 290 290 291 292 293 294 295 295 295 296 296 296 296 296 296 296 296 298 298 299 299 299 299 300 302 303 305 306 309 312 318 324 327 328 328 328 329 329 330 329 330 330 331 330 330 331 330
280 273 278 281 281 284 287 287 286 287 288 283 280 285 281 277 276 281 278 271 270 270 273 278 280 280 281 277 278 278 279 281 283 285 286 286 286 287 288 289 291 291 292 293 293 293 294 294 295 295 295 296 296 295 296 296 297 296 296 297 297 298 299 299 301 302 304 305 306 309 312 318 325 327 327 328 328 329 329 329 329 330 330 330 330 329
282 272 275 283 281 282 283 283 275 279 286 286 288 282 282 283 278 276 276 277 276 272 271 273 277 276 280 278 280 280 281 282 282 283 283 285 286 287 288 289 290 291 291 292 292 293 293 294 294 294 294 294 294 294 294 295 295 295 295 295 295 296 297 298 299 300 300 301 303 304 306 308 311 316 324 327 327 327 327 327 327 328 328 329 329 330
277 280 270 278 282 283 277 280 277 279 277 279 279 277 279 279 280 280 279 276 274 271 271 271 271 276 280 282 282 282 283 283 283 283 283 284 285 287 288 288 289 290 290 290 291 291 292 292 293 294 294 294 294 295 294 294 294 294 294 294 294 294 295 296 297 298 298 299 300 301 302 304 307 309 312 317 323 325 327 328 325 328 328 328 328 328
277 277 271 275 276 275 277 282 280 281 282 280 279 276 278 275 274 271 270 277 274 272 270 271 269 277 281 284 283 283 284 284 284 284 283 284 284 285 287 288 289 289 289 289 290 290 291 291 292 292 293 294 293 293 293 293 293 293 292 293 293 294 294 294 295 296 297 298 299 299 300 302 304 307 309 311 313 317 323 326 327 328 327 327 328 329
281 278 276 273 275 276 279 282 283 283 282 280 281 278 280 277 277 273 267 271 274 274 274 274 271 275 283 284 285 284 284 284 284 284 283 284 285 286 287 287 288 289 288 288 288 289 289 290 290 290 291 291 292 292 292 292 292 292 292 292 292 292 293 294 294 295 295 296 297 298 299 301 302 303 305 306 309 311 314 320 324 326 327 327 328 328
283 275 273 274 277 279 280 281 283 281 282 280 280 281 279 275 276 275 274 275 272 273 272 273 270 276 284 286 285 285 285 284 284 283 282 283 284 286 287 288 288 287 288 288 288 288 288 289 289 289 289 289 290 291 291 291 291 291 291 291 291 291 292 293 293 294 294 295 295 297 298 299 300 301 302 303 305 307 309 312 317 321 325 326 328 328
275 277 274 270 269 272 277 279 278 275 278 278 276 279 279 278 278 278 277 277 272 273 273 271 267 275 284 286 286 285 284 283 282 282 283 282 283 284 287 288 288 287 287 286 286 286 287 287 286 287 287 289 289 289 289 290 290 290 290 290 290 291 291 292 293 293 293 294 294 295 296 297 298 299 300 300 301 303 305 308 310 314 318 323 325 327
278 276 273 267 264 263 263 265 267 270 274 277 278 278 278 277 276 275 270 272 267 270 272 272 272 279 284 285 284 284 283 282 282 282 282 282 282 282 285 288 288 287 286 285 285 285 285 285 285 286 287 287 289 289 289 288 288 289 289 290 290 290 290 291 292 292 292 293 293 294 295 296 297 297 298 299 300 301 302 304 307 310 314 317 321 324
278 278 276 273 270 269 271 273 276 278 276 272 275 276 276 277 277 276 275 271 269 272 270 273 275 275 277 279 281 282 281 280 280 280 280 280 282 283 284 286 287 286 285 285 284 284 284 284 284 285 286 287 287 288 288 288 288 288 288 289 289 290 290 291 291 291 292 292 293 293 294 294 295 296 297 298 299 300 301 302 304 306 308 312 315 318
273 271 273 274 274 274 275 275 278 277 274 274 273 274 275 275 275 274 271 270 276 271 268 275 277 274 276 279 281 281 281 280 280 279 280 280 281 282 282 284 287 286 285 284 283 283 283 283 284 284 285 285 287 287 287 287 288 288 288 288 289 290 290 291 291 291 291 292 292 292 293 294 295 296 297 297 298 299 300 301 302 303 305 307 310 313
271 269 272 272 272 275 276 275 276 275 274 274 274 274 273 275 274 272 272 274 275 270 269 275 276 274 277 279 281 280 279 279 279 279 280 281 281 282 282 282 285 284 283 283 282 282 283 282 283 284 284 285 286 286 286 286 287 287 287 288 288 289 290 290 290 290 291 291 291 292 293 293 295 296 296 296 297 298 298 299 300 301 302 303 306 308
272 271 271 272 271 273 274 274 275 273 273 273 273 274 275 275 274 274 274 275 275 273 275 275 276 276 278 280 281 280 280 279 279 281 281 280 280 281 281 282 284 283 282 282 282 282 283 283 283 283 284 284 285 285 286 285 286 286 286 287 288 289 289 290 289 290 290 290 290 291 292 293 293 294 295 296 296 296 297 297 298 299 299 300 302 304
272 270 272 269 267 269 272 274 274 274 273 272 274 275 275 275 275 275 275 275 276 275 276 276 275 275 281 282 280 280 280 280 280 279 279 280 280 281 280 282 283 281 281 281 282 282 282 283 283 283 283 284 284 285 285 285 285 286 286 287 287 288 289 289 289 289 289 290 291 291 292 292 292 293 293 294 295 295 296 296 297 297 298 299 300 302
273 270 270 268 267 268 271 272 273 274 274 271 271 273 274 274 273 275 274 276 275 274 276 276 274 275 281 280 280 280 279 279 278 279 279 279 280 280 280 283 281 280 281 281 281 282 282 282 282 283 283 283 284 285 285 284 285 285 285 286 287 288 289 289 288 288 289 289 290 290 291 291 292 292 292 293 294 294 295 295 296 296 298 299 299 300
271 270 268 269 267 267 271 272 272 272 270 269 271 275 276 276 277 278 278 279 278 278 275 273 275 280 279 279 277 278 278 278 278 278 279 279 280 280 281 282 280 281 281 281 281 282 282 282 282 283 283 284 284 284 285 285 284 284 285 286 287 288 288 288 288 288 289 289 289 289 290 290 291 291 291 292 293 294 294 294 295 296 296 296 297 299
269 270 269 272 266 268 269 270 271 269 266 269 278 281 279 277 277 275 276 277 279 280 278 280 280 279 278 278 277 277 277 278 278 280 281 280 280 280 282 281 281 281 281 281 282 282 282 283 283 283 284 284 284 285 285 285 284 285 285 286 287 287 287 288 288 288 288 289 289 289 289 289 290 290 291 291 292 292 293 293 294 295 296 296 297 298
270 271 269 271 267 267 269 269 268 263 267 277 280 281 281 280 279 277 278 278 279 280 280 279 279 278 278 278 278 278 279 279 280 280 280 281 281 282 281 280 281 281 281 281 281 282 282 282 283 283 283 283 284 284 285 284 285 285 285 285 286 287 287 287 287 287 288 288 288 289 289 289 289 289 290 290 291 291 292 292 293 294 295 295 295 295
270 270 270 269 270 270 269 269 262 265 273 277 278 279 281 280 279 278 276 279 280 280 280 279 279 278 278 278 279 279 279 280 280 281 281 282 283 282 281 280 281 281 281 281 281 282 282 282 282 282 283 284 284 284 284 284 285 284 284 285 285 286 286 287 287 287 287 288 288 288 289 289 288 288 289 289 290 290 290 291 292 292 294 294 295 296
273 272 271 268 271 265 268 268 267 273 272 274 274 278 279 276 276 275 271 275 280 280 279 279 278 277 278 278 279 279 280 279 278 279 282 282 283 283 282 281 282 282 282 282 282 282 283 283 283 283 284 283 284 283 283 284 284 284 284 284 285 285 286 286 285 286 287 287 288 288 289 289 288 288 288 288 288 289 289 290 290 291 293 293 294 294
275 271 272 269 269 271 267 266 267 266 263 270 277 280 281 280 279 279 275 272 278 280 281 278 277 277 277 278 278 279 279 276 274 277 281 282 282 282 282 283 283 283 282 282 283 283 283 283 283 284 283 283 283 283 284 284 284 283 283 283 284 285 284 285 285 285 286 287 288 288 288 288 288 288 287 287 287 287 288 289 290 291 292 292 292 293
274 274 273 270 269 270 268 265 264 260 266 275 276 278 279 280 279 279 273 269 278 280 278 278 277 277 277 277 278 278 276 272 273 277 281 282 282 282 281 282 282 282 282 282 282 282 282 283 283 283 283 283 282 283 284 284 283 283 283 283 284 284 284 284 284 285 286 287 287 287 288 288 288 287 287 287 287 287 288 288 289 289 291 291 293 293
270 270 270 268 266 268 267 265 263 267 267 274 277 278 279 279 280 276 264 267 278 278 278 278 277 277 278 278 278 277 275 272 274 277 281 282 282 282 281 281 281 281 282 282 283 283 283 283 283 282 282 282 282 283 283 283 283 283 282 283 283 283 283 284 284 286 287 287 287 287 287 287 287 287 287 287 287 287 288 288 288 289 289 290 291 292
267 268 269 265 267 267 268 266 268 269 275 278 278 280 280 280 277 266 262 272 279 279 279 279 278 278 279 278 279 275 278 279 279 281 282 282 281 281 282 282 282 282 282 282 282 283 283 283 282 282 282 282 283 283 283 283 282 282 282 283 282 282 283 284 285 286 286 286 286 286 286 286 286 286 286 287 287 288 287 288 288 288 288 288 289 290
265 265 266 267 266 266 267 265 265 269 275 278 279 279 280 275 266 266 276 280 279 279 279 279 279 280 280 279 279 279 279 281 281 282 281 281 281 281 282 282 282 282 283 283 283 283 282 282 282 282 282 283 283 283 283 283 282 282 282 282 281 282 284 285 285 285 285 284 284 284 284 285 285 286 286 287 287 287 287 288 288 288 288 288 288 288
268 264 264 264 267 267 265 263 262 260 273 278 278 277 278 271 273 279 280 279 280 280 280 280 280 280 280 279 280 280 280 280 281 281 281 281 281 281 281 281 281 281 281 281 282 282 282 281 281 281 282 282 283 283 283 282 281 281 281 281 282 283 284 284 284 283 283 282 283 283 283 284 284 285 286 285 286 286 285 286 287 287 288 288 287 288
273 268 266 266 269 265 262 261 262 272 277 278 278 273 277 278 281 281 280 278 281 281 280 280 280 281 281 280 279 280 280 280 280 281 281 281 281 282 281 281 281 281 281 282 282 282 282 281 281 281 282 282 282 282 282 281 280 280 280 280 282 283 283 282 282 281 281 281 281 281 282 283 283 284 283 283 284 284 284 285 286 286 287 287 287 287
274 272 273 270 273 269 267 270 276 277 278 280 279 279 281 282 282 281 281 280 279 280 282 280 280 281 281 281 280 280 279 280 280 281 280 280 281 281 280 281 281 281 281 281 281 282 281 281 280 281 281 281 281 281 281 281 280 279 279 280 281 281 280 280 279 279 279 279 280 280 281 280 280 281 281 282 283 283 284 284 285 285 286 286 287 287
277 277 278 275 274 277 278 278 279 279 279 280 281 281 280 280 282 282 281 279 281 281 282 280 281 281 281 282 280 280 280 280 280 280 280 280 280 280 281 281 281 281 281 281 281 281 281 281 280 280 279 279 280 280 280 280 279 277 278 280 280 280 279 278 278 278 278 278 279 279 279 279 279 280 281 282 283 284 284 285 285 285 285 286 286 287
276 277 275 271 275 272 268 278 277 278 279 280 280 282 282 282 281 282 281 281 281 282 282 282 282 281 281 281 280 279 279 280 280 280 280 280 280 280 280 280 280 280 280 280 281 281 280 279 278 278 278 277 278 278 278 278 278 278 278 278 278 277 277 277 277 276 276 276 277 277 278 277 278 279 280 281 283 284 285 285 285 285 285 285 286 286
273 279 274 273 273 271 271 277 279 280 280 281 281 280 280 281 282 282 282 282 282 282 282 282 282 281 281 280 280 280 280 280 280 279 279 280 280 280 280 280 280 280 281 281 280 280 279 278 277 276 276 275 276 277 277 277 276 277 276 276 276 276 276 274 274 274 274 275 275 276 277 277 279 279 280 281 282 283 283 284 284 284 284 284 285 285
277 277 271 274 272 274 277 278 278 279 279 279 280 281 281 282 281 282 282 282 281 281 281 281 282 281 280 280 281 280 279 279 280 280 279 279 279 279 279 280 280 280 280 279 279 277 276 276 275 274 274 274 275 275 275 275 275 275 275 275 275 274 272 272 272 273 273 274 275 276 277 278 278 279 280 281 282 283 283 283 283 283 284 285 286 286
277 272 276 275 271 271 272 275 278 273 273 278 280 281 282 283 282 281 281 281 280 280 280 279 280 281 281 281 281 280 279 279 280 280 279 279 279 279 279 279 279 279 278 278 277 276 274 273 273 272 272 273 273 273 273 273 273 274 274 274 272 271 270 270 271 272 272 274 275 276 277 278 279 280 280 280 280 281 282 284 284 284 283 283 284 285
276 276 276 273 272 272 277 280 281 280 279 280 281 282 283 283 282 281 281 281 281 281 281 281 280 280 280 280 281 280 279 279 279 279 279 279 279 279 279 279 278 277 276 276 274 273 273 272 272 272 271 271 272 271 271 272 272 272 272 271 271 271 270 271 271 272 273 274 275 276 276 276 276 276 277 277 278 278 278 279 281 283 284 284 284 284
Wind_Speed
5 5 6 8 10 11 12 12 14 15 14 15 13 11 9 10 13 11 10 9 11 11 12 15 16 17 15 14 12 11 11 14 16 16 14 12 13 13 11 12 12 13 13 5 5 9 11 11 11 10 10 10 12 13 13 14 16 16 16 13 11 11 12 11 11 11 12 13 13 13 13 14 14 14 14 13 14 13 13 13 14 14 13 13 12 13
3 6 6 9 12 12 13 13 14 14 14 14 12 11 10 8 10 12 12 9 4 4 10 12 14 18 16 15 12 12 12 13 14 15 15 15 14 14 15 14 14 13 6 2 5 7 10 10 10 9 9 10 13 12 13 15 15 15 14 15 14 9 11 13 13 10 11 11 11 11 11 11 11 12 12 12 12 13 12 13 13 13 13 14 14 12
7 5 8 9 9 10 11 11 10 12 10 9 9 8 8 7 7 12 10 10 5 6 11 11 11 11 12 10 9 11 12 11 12 14 15 15 15 13 13 13 12 9 9 6 6 8 9 9 10 9 8 9 11 11 13 13 14 13 13 14 14 13 11 11 11 11 11 11 11 11 10 11 11 12 12 11 11 11 12 12 13 13 13 14 13 14
7 7 12 11 10 11 11 9 7 7 9 9 8 8 7 4 6 7 4 5 5 4 6 5 9 11 12 11 8 9 9 10 12 15 15 14 16 15 14 13 11 10 8 9 8 7 8 7 7 7 9 8 7 8 8 11 13 12 12 11 13 11 13 13 11 10 12 12 13 13 12 12 12 11 10 12 12 12 12 13 12 12 12 14 14 14
7 13 11 10 11 10 10 6 6 6 6 4 8 6 1 2 4 7 8 4 8 7 5 7 10 11 11 12 9 9 8 9 10 12 13 12 14 14 11 7 9 12 9 7 8 8 8 8 9 7 7 10 10 8 7 9 10 10 13 12 12 12 12 11 10 12 10 9 9 10 11 12 11 10 11 10 12 13 12 12 12 14 13 14 12 12
6 5 6 14 13 8 3 4 5 7 5 3 4 3 1 3 8 11 10 6 4 6 7 6 6 8 5 6 6 5 5 7 7 9 10 10 11 12 12 11 7 6 6 7 6 6 7 8 5 4 5 6 7 9 9 8 9 9 8 9 9 10 9 11 13 12 10 11 10 10 12 11 13 14 14 15 14 12 13 13 10 10 12 13 11 10
3 9 6 11 13 10 4 5 1 6 5 2 1 5 5 6 8 10 10 5 5 7 5 4 7 3 7 2 3 5 5 6 5 6 7 8 9 9 8 11 15 16 15 14 14 14 12 9 5 5 5 3 3 3 3 5 4 5 6 6 7 9 11 11 13 14 10 11 11 14 13 13 15 16 15 12 8 7 7 8 10 12 12 12 12 11
2 11 8 6 10 10 9 4 3 3 4 2 2 6 4 6 8 8 6 8 5 4 2 2 5 7 7 4 5 6 4 4 2 3 4 8 14 17 17 17 18 17 17 15 15 15 14 12 10 6 2 2 2 2 2 4 4 4 6 6 6 6 7 8 10 13 12 11 10 11 13 12 16 14 13 10 11 8 6 7 9 10 11 13 13 10
4 10 13 14 9 6 8 10 11 6 4 3 5 2 5 6 7 4 4 5 5 3 6 6 5 5 4 2 2 4 4 4 6 16 20 18 17 18 18 17 16 16 17 16 13 13 13 13 13 12 10 4 2 1 4 5 5 6 7 6 4 5 6 8 10 10 13 13 13 13 11 12 12 15 11 8 7 7 8 11 8 8 11 9 11 11
2 2 8 7 10 12 10 11 8 6 5 2 5 4 6 2 2 3 3 2 1 4 2 3 3 4 1 4 3 1 5 11 15 17 18 17 17 16 16 16 16 15 14 15 16 15 15 14 12 12 14 15 9 5 3 1 3 5 6 5 4 8 8 9 10 9 12 14 14 14 15 17 13 10 9 9 9 9 10 13 13 13 11 13 12 11
9 5 1 1 6 9 10 9 3 2 2 5 6 6 4 4 1 2 1 1 4 2 3 1 5 5 2 4 8 10 8 9 12 13 13 16 17 17 16 16 15 14 15 14 15 16 16 14 14 13 15 13 11 10 9 8 5 4 6 6 8 8 7 8 9 8 10 12 14 15 16 18 18 14 10 9 11 10 10 12 12 12 11 14 15 14
11 3 4 4 1 9 8 5 4 2 5 2 2 2 4 3 3 1 1 2 1 3 5 2 4 8 5 6 13 11 13 15 14 16 16 16 17 15 14 14 15 15 15 15 15 15 16 17 17 16 15 13 11 9 8 6 6 6 6 6 7 6 6 6 6 7 9 10 14 17 18 18 18 15 10 12 16 15 16 16 14 12 10 13 14 13
5 6 5 6 5 15 14 9 5 2 3 5 3 2 3 2 1 2 1 1 2 5 5 5 3 4 4 11 8 12 14 15 16 14 14 14 15 15 15 15 14 15 16 16 15 15 14 14 14 15 14 14 14 12 11 10 8 9 9 8 9 7 6 4 5 7 9 11 12 15 18 19 16 15 12 13 18 16 16 15 14 12 14 12 12 14
6 2 7 14 1 12 12 11 10 6 10 10 8 7 5 5 4 5 4 1 0 3 4 3 3 5 11 11 11 13 13 13 13 12 13 14 14 16 16 15 15 15 15 14 15 15 15 14 14 13 14 15 13 15 14 13 12 9 9 11 11 11 10 9 7 8 9 11 12 12 14 17 16 16 16 13 16 16 16 13 15 15 15 14 14 14
8 4 10 14 9 11 10 7 6 6 9 6 5 5 5 4 3 4 4 5 6 6 5 2 2 3 4 5 5 8 11 11 12 11 12 13 14 13 14 16 18 18 17 15 14 15 16 16 16 14 14 13 14 16 15 14 14 13 13 14 14 13 12 10 10 9 11 9 9 9 10 11 11 16 16 15 14 14 15 12 14 11 12 15 12 11
5 7 6 8 9 10 11 8 6 8 7 3 4 2 2 5 4 3 4 4 3 2 2 2 4 2 7 7 1 4 9 12 13 15 16 18 16 15 16 18 16 16 17 16 16 16 18 17 17 16 16 15 14 16 15 16 14 14 14 14 14 14 13 12 11 10 11 12 10 9 9 10 10 10 10 13 11 12 12 15 16 15 13 12 11 10
7 3 5 12 8 9 11 9 6 7 6 6 5 4 6 3 3 5 3 5 4 3 4 0 6 5 5 5 9 9 14 17 17 18 19 18 18 17 17 17 17 16 16 16 16 16 18 17 17 16 17 16 17 16 16 16 16 16 15 15 16 16 14 14 14 12 11 12 12 12 11 11 10 9 11 11 12 13 12 10 12 15 14 11 10 10
6 12 13 6 15 11 12 5 6 5 3 4 6 7 10 4 3 3 4 3 3 2 3 1 4 7 7 5 7 16 17 17 18 18 17 18 19 20 18 17 17 17 16 16 17 17 18 17 18 17 16 18 18 18 17 17 15 15 14 16 16 16 17 16 15 15 14 14 13 12 12 12 11 12 12 11 11 12 10 10 10 11 12 12 9 9
5 8 0 2 9 10 13 7 4 7 9 8 4 4 4 3 3 5 2 4 5 2 4 2 2 2 3 5 7 13 15 16 17 17 19 21 20 18 17 17 16 16 15 16 17 16 17 17 18 17 17 16 16 17 17 16 15 15 15 16 15 17 15 15 13 14 12 14 12 11 14 14 13 11 11 11 10 9 11 13 13 13 13 10 9 9
3 3 5 3 11 11 6 5 5 9 4 3 5 6 3 2 3 5 3 3 2 3 5 3 5 5 9 5 8 11 12 13 13 14 15 16 17 16 15 14 14 15 15 15 15 15 15 16 17 18 18 18 17 16 16 16 15 18 16 16 17 15 15 16 16 15 14 14 13 14 14 13 14 15 13 12 11 9 11 12 15 13 13 14 11 11
3 1 5 8 15 8 2 6 5 6 9 11 10 8 7 3 1 2 1 3 3 4 3 4 2 5 6 6 10 11 12 13 13 12 11 12 13 14 14 14 13 14 15 14 14 14 15 15 16 16 16 16 15 14 15 15 16 15 15 16 17 18 17 18 15 15 14 14 14 15 15 15 14 15 14 16 14 14 13 12 11 14 14 11 12 11
3 2 7 11 9 5 2 4 4 4 6 7 6 7 7 8 6 4 1 2 3 3 4 5 3 3 6 5 9 10 10 11 13 13 11 13 13 12 11 13 13 12 14 14 14 15 15 16 16 16 15 15 16 17 18 16 15 17 18 16 16 16 15 17 16 15 15 14 13 15 14 14 13 13 13 14 15 15 15 14 13 13 12 11 14 11
2 3 5 8 7 10 10 3 1 1 2 4 7 6 6 4 3 1 3 3 3 0 1 3 4 1 6 5 9 10 10 11 12 13 12 12 12 12 11 10 10 11 11 12 13 13 14 15 16 16 17 17 17 17 18 17 16 16 17 17 16 16 16 16 15 14 14 14 14 16 14 13 13 13 14 13 12 13 14 14 15 13 12 13 13 10
5 2 6 8 7 5 0 3 4 2 3 1 4 5 5 6 4 3 3 5 4 4 2 1 2 2 7 2 7 10 10 11 11 13 13 11 9 10 10 10 11 11 11 12 11 11 12 13 14 15 17 18 17 17 17 16 16 16 16 16 17 18 19 17 15 15 16 15 16 15 14 14 14 15 14 14 12 13 14 13 14 14 13 13 12 12
4 1 3 7 4 1 4 4 3 2 1 2 5 4 4 5 2 3 4 1 3 2 3 2 6 3 7 1 9 14 16 16 13 11 11 11 9 9 9 8 9 10 11 12 13 14 14 14 16 15 15 15 16 16 16 16 17 16 16 16 16 16 17 16 15 16 15 15 17 16 14 15 14 14 15 15 14 15 15 14 13 13 14 14 13 13
1 3 4 3 5 6 6 5 5 7 10 10 3 2 5 5 4 4 1 1 3 1 0 4 6 1 4 10 15 14 13 13 10 9 9 9 10 9 9 8 8 9 10 13 14 15 16 14 14 15 16 15 14 14 15 16 17 16 16 17 16 16 16 16 15 16 15 14 15 15 16 16 15 15 16 15 15 15 15 15 14 14 13 14 14 14
2 3 4 4 4 5 7 9 8 7 10 8 13 14 11 5 4 5 4 4 6 3 6 10 10 15 18 16 10 11 11 12 12 11 11 11 12 9 9 8 8 9 10 12 13 13 15 17 18 18 17 15 15 15 14 14 15 16 16 17 17 16 16 15 15 16 15 16 15 14 15 16 16 15 14 14 15 14 13 13 13 14 14 13 14 14
1 3 5 8 13 13 12 13 12 10 14 15 14 15 13 11 6 5 6 6 1 5 11 8 11 11 12 11 10 10 10 10 9 10 10 10 11 10 10 9 8 9 11 11 13 14 15 16 17 18 18 18 16 17 16 15 14 14 14 16 16 15 15 14 16 16 16 15 15 15 16 15 15 14 15 14 13 13 13 12 13 13 13 13 14 14
2 4 2 1 8 11 12 13 13 13 13 13 15 15 15 12 10 8 11 12 10 7 12 5 6 12 17 15 8 4 4 8 9 11 10 10 12 13 11 10 8 10 10 12 13 14 14 16 16 18 18 17 18 19 19 17 16 16 15 14 14 14 15 15 16 16 15 15 15 15 15 15 14 13 15 15 14 14 14 14 12 12 13 12 13 12
1 3 2 3 10 13 14 14 12 12 12 12 14 16 14 13 14 14 15 12 13 15 15 16 17 19 17 16 3 3 2 5 7 8 10 12 15 14 11 10 8 9 11 12 13 13 14 16 17 17 17 18 19 19 18 17 18 17 17 17 15 15 14 15 16 16 16 16 15 15 15 15 15 15 15 15 15 14 14 14 13 12 13 13 13 13
2 1 5 2 3 8 11 9 6 8 10 15 18 16 14 13 14 12 11 13 12 14 17 18 19 18 11 1 2 2 2 4 6 8 10 11 14 15 12 9 8 10 12 12 14 15 15 15 16 17 18 18 18 18 17 16 16 17 18 17 16 15 14 14 15 15 15 16 16 16 15 15 15 15 16 15 14 15 15 15 14 13 11 11 12 12
1 2 2 1 5 4 2 4 7 11 13 14 18 18 13 10 8 6 8 7 7 7 9 11 12 12 4 3 3 4 5 7 8 9 10 11 14 13 12 9 10 12 14 16 17 16 16 16 17 18 17 17 17 17 16 16 17 16 17 17 17 17 15 14 14 14 15 14 15 16 16 15 16 16 16 16 16 16 16 14 13 13 12 9 10 10
1 1 2 2 5 5 2 6 12 12 11 8 4 3 5 5 5 3 7 7 9 9 11 10 11 5 3 4 5 5 6 8 9 9 11 13 14 12 10 9 10 13 17 19 18 17 16 16 17 18 18 16 15 15 16 16 16 16 16 17 17 16 16 16 15 14 14 14 14 15 15 15 16 17 16 16 16 16 15 15 15 14 14 15 12 10
2 3 2 2 3 4 5 9 9 6 5 1 3 4 2 3 5 7 10 10 9 7 9 5 8 3 4 4 5 7 8 9 10 9 8 11 12 9 6 8 11 15 17 17 16 17 16 15 16 16 17 17 17 15 15 14 15 15 16 16 16 16 16 17 17 16 16 15 14 13 14 15 15 16 16 16 16 16 16 16 16 14 13 12 11 10
4 4 3 2 3 5 4 6 5 3 3 4 8 9 7 8 9 12 15 15 14 9 9 9 9 5 5 5 6 7 8 9 10 12 12 12 10 6 6 10 14 17 17 17 17 16 17 17 18 18 18 17 17 16 15 15 14 15 15 15 16 16 16 15 17 17 16 16 16 15 13 14 15 15 15 15 16 16 17 17 16 16 13 12 12 12
6 6 3 3 3 5 4 1 4 3 3 14 20 17 11 9 8 8 12 12 8 7 8 9 8 5 4 7 8 8 9 10 11 12 12 9 4 4 8 12 16 17 18 17 18 17 16 17 18 19 18 16 16 16 15 16 16 15 16 15 15 16 15 16 16 16 17 17 16 17 16 15 15 15 15 15 15 15 16 17 16 17 15 14 13 11
7 5 4 3 4 3 2 5 9 12 17 9 6 2 2 0 2 3 8 8 3 6 9 10 5 4 6 7 9 10 11 11 10 10 7 5 6 6 10 14 15 16 17 17 17 17 16 16 16 18 17 17 17 17 17 16 16 16 17 16 15 15 15 15 16 16 16 16 17 17 17 17 17 16 15 15 16 15 15 15 17 16 14 15 14 13
10 7 4 2 3 5 5 9 10 5 5 2 5 3 4 6 4 3 6 15 7 13 9 6 6 6 6 8 10 12 12 12 12 9 6 5 4 9 10 11 12 14 15 17 17 16 15 15 15 16 15 18 18 17 16 16 16 17 17 17 15 15 16 15 16 16 17 16 16 16 17 17 17 17 16 15 16 15 14 13 12 14 12 14 15 15
8 6 3 5 3 2 4 5 4 3 8 4 5 6 7 4 4 3 7 14 5 6 9 7 5 5 7 9 12 10 10 14 15 11 8 8 9 9 11 12 12 13 14 16 16 17 17 15 16 15 15 16 17 17 17 18 18 17 17 17 17 16 16 16 16 16 16 17 17 17 16 16 17 17 17 17 16 15 15 14 12 11 12 13 13 14
6 5 5 5 6 7 7 8 10 5 9 2 1 3 6 4 3 6 9 5 5 6 9 4 5 7 11 10 10 9 11 16 16 14 15 15 13 11 11 13 14 13 14 15 15 15 16 16 15 15 16 16 17 17 17 17 16 17 17 17 16 17 17 16 16 16 17 17 17 16 16 15 16 17 17 17 17 16 14 13 13 13 12 13 12 13
4 5 7 11 8 9 11 10 9 10 11 18 19 17 5 3 1 4 9 7 5 7 7 5 9 9 10 12 10 14 14 15 18 19 17 13 13 13 12 13 13 13 14 14 15 14 14 14 14 15 16 14 15 14 14 14 15 16 16 17 17 17 16 16 16 17 17 16 17 17 17 16 16 18 18 17 16 16 15 13 13 13 13 13 12 13
2 1 2 3 8 10 9 11 12 10 16 15 15 8 8 3 5 11 5 4 6 7 8 8 10 13 13 15 14 14 16 17 17 16 17 15 13 14 14 15 15 15 14 14 14 14 13 13 14 15 15 15 14 14 13 13 15 17 17 17 18 18 16 16 17 16 16 17 17 17 17 17 17 17 16 16 16 16 16 15 13 12 13 11 12 14
6 5 4 7 4 2 4 7 6 9 2 8 7 5 9 6 7 4 1 4 5 8 10 11 11 13 12 15 16 16 17 18 18 18 17 17 16 15 15 15 16 17 16 16 15 14 14 14 15 15 15 14 14 13 13 14 16 16 16 17 19 16 15 15 16 16 17 17 18 17 17 17 18 17 14 15 16 17 19 17 14 13 12 12 13 13
7 5 3 5 7 4 7 7 10 8 1 4 8 6 9 14 8 4 3 10 8 8 11 12 11 11 12 15 18 19 21 21 19 18 18 18 17 16 14 15 16 16 16 16 16 16 15 15 14 14 14 13 13 13 13 13 15 15 16 19 17 15 14 14 15 16 16 16 17 16 15 16 17 18 17 17 17 17 18 17 15 14 12 11 10 11
14 10 7 6 6 8 8 9 7 2 5 6 9 11 13 9 5 7 10 12 13 12 10 11 14 13 13 15 18 18 18 16 18 17 18 19 19 18 17 16 17 17 17 17 17 16 14 14 15 14 14 13 15 15 14 13 14 15 18 17 14 13 14 15 15 15 16 16 16 15 15 16 17 18 17 17 16 16 16 17 14 14 13 12 10 10
7 15 5 4 13 11 12 14 17 16 15 13 10 8 11 14 13 11 12 13 12 13 12 13 14 16 16 14 13 14 15 15 15 17 18 18 19 19 17 16 15 15 16 16 15 14 13 11 11 12 14 16 15 15 13 13 13 15 17 14 11 13 13 15 16 16 16 16 16 16 15 16 17 17 17 17 15 14 14 14 14 13 13 13 12 12
13 10 7 10 2 2 10 12 22 24 21 19 18 17 14 13 14 12 12 12 14 14 14 14 14 15 16 16 16 17 18 18 18 17 16 15 17 18 19 19 17 15 15 16 16 12 9 8 10 12 13 14 16 14 13 13 13 14 14 12 12 12 13 14 15 16 16 16 15 15 14 16 15 15 15 15 14 14 13 13 13 13 13 13 13 13
9 13 12 15 11 13 17 14 14 17 15 11 12 14 16 17 17 16 13 13 14 14 14 14 14 16 13 12 13 16 19 20 21 19 17 17 17 15 16 14 15 14 13 12 11 7 8 10 11 12 13 15 16 14 13 13 14 14 13 11 11 11 12 14 15 15 16 17 16 14 14 14 18 19 15 15 14 14 14 13 13 13 14 13 13 13
3 7 8 6 9 14 16 20 24 22 21 21 22 20 17 15 14 15 12 13 13 14 14 14 11 11 11 14 16 18 19 19 19 19 19 18 18 17 16 16 16 15 9 5 7 8 9 10 11 13 14 16 15 13 13 14 15 14 14 12 9 8 13 15 16 16 17 16 14 15 14 14 14 14 14 14 14 14 14 14 14 14 15 16 13 13
6 12 10 5 13 14 13 16 12 9 10 10 14 15 13 12 12 13 13 12 11 12 11 13 14 14 14 14 15 15 18 18 18 18 19 18 18 19 19 18 15 11 7 6 5 6 9 12 13 13 13 14 12 11 13 14 15 15 12 8 8 10 12 14 15 16 16 15 14 14 14 13 12 12 12 13 14 16 16 17 19 18 17 18 20 21
15 17 10 14 14 16 15 18 13 14 16 15 13 10 10 10 11 14 15 14 13 13 13 14 15 15 16 16 14 15 16 17 19 18 19 17 17 17 16 14 12 10 10 6 5 8 9 11 13 12 14 14 12 13 13 13 13 13 11 7 9 11 13 15 14 14 15 15 13 13 13 14 15 15 14 14 14 16 18 19 19 19 24 26 28 26
Wind_Direction
329 336 320 317 310 306 301 289 281 281 281 284 276 266 261 261 271 274 273 256 260 273 270 254 257 261 264 262 264 259 251 256 265 259 260 257 261 267 269 264 260 252 250 242 222 181 192 200 195 186 187 197 207 215 217 216 217 219 220 208 186 191 191 194 200 206 208 212 215 220 220 222 223 224 226 226 226 224 222 216 214 214 215 217 213 215
264 338 340 329 320 310 301 301 293 275 270 265 268 261 255 248 274 282 286 279 210 229 266 266 261 262 262 264 265 267 260 254 258 266 264 263 259 260 263 265 265 265 255 121 214 203 200 206 193 177 173 181 201 207 217 219 217 217 216 221 222 186 192 197 190 190 196 202 207 208 216 219 222 221 221 225 222 223 222 219 216 215 214 212 213 213
340 343 335 322 315 303 293 291 292 267 247 238 248 257 261 265 301 304 275 254 225 239 259 268 274 268 268 270 267 264 261 259 258 260 266 271 268 263 261 263 264 259 258 241 228 216 216 213 205 188 166 178 194 202 209 220 224 220 219 220 219 220 201 197 199 189 198 202 206 212 220 220 227 229 227 224 220 217 217 217 215 214 212 212 216 211
342 349 326 311 305 298 290 284 280 276 249 231 235 249 256 8 4 312 8 13 329 255 270 274 282 274 274 267 261 271 270 259 253 256 256 259 269 268 266 268 271 263 246 241 232 223 215 213 205 192 170 174 185 188 184 211 215 218 219 218 219 214 218 216 199 204 209 209 210 216 227 231 231 232 228 230 228 224 216 216 213 213 215 217 222 216
322 308 317 312 295 290 292 288 232 240 253 229 252 257 236 72 277 278 302 325 307 267 260 274 271 271 267 267 258 249 251 258 254 255 254 253 261 273 277 278 276 279 277 243 230 230 210 202 211 218 184 165 178 187 189 202 203 212 216 217 215 223 221 223 220 210 210 201 205 213 220 230 239 240 240 234 232 227 225 227 223 225 219 220 215 211
321 297 317 314 323 323 305 276 243 264 258 239 238 260 356 295 277 280 288 275 227 226 206 228 262 262 251 241 262 288 294 278 276 272 266 259 256 266 281 277 281 279 295 307 293 253 246 241 239 213 205 211 183 184 194 200 204 203 201 208 211 224 227 226 223 223 220 212 210 215 222 221 225 234 232 233 236 236 232 231 231 226 224 222 215 205
298 303 323 331 339 3 9 308 223 195 255 251 205 204 230 262 280 285 295 251 227 224 156 184 226 238 94 349 49 343 319 300 282 273 280 280 277 282 297 0 24 27 22 28 25 19 9 357 339 344 338 283 204 216 167 193 208 219 215 201 205 222 234 234 235 229 217 224 229 224 224 232 237 239 239 236 228 216 230 238 232 231 225 218 216 209
295 302 327 342 352 4 356 335 29 236 258 279 69 197 238 256 263 282 293 245 251 28 59 261 215 267 287 315 22 11 328 360 351 283 329 2 23 37 37 35 36 37 38 40 35 35 28 17 21 7 13 95 340 88 165 187 173 215 229 206 203 216 226 228 230 233 226 224 225 230 229 227 236 238 245 238 236 223 210 219 224 230 230 225 220 218
334 316 338 337 345 2 357 326 310 303 249 341 337 239 242 260 278 299 264 260 250 276 196 181 195 239 261 16 36 18 338 28 44 50 45 40 37 40 42 42 39 42 46 44 37 33 36 32 27 33 23 20 73 86 170 154 158 209 225 210 202 228 233 237 228 228 231 228 230 234 233 238 237 240 239 228 228 223 218 224 215 199 222 218 218 211
331 311 321 328 345 355 325 316 309 322 258 23 335 254 263 268 321 290 269 255 221 228 248 101 181 237 283 38 304 327 6 19 33 46 47 45 45 40 38 36 33 35 36 38 37 30 25 24 32 42 45 38 22 2 341 67 149 195 206 197 219 240 244 243 238 228 228 231 231 233 235 239 243 238 235 230 229 223 225 230 231 231 221 226 224 216
291 278 200 352 350 329 314 312 310 326 296 287 282 274 260 255 328 327 339 154 135 150 61 284 192 217 239 64 31 41 22 29 53 54 49 42 40 38 35 33 33 32 31 33 32 30 25 17 19 28 41 40 38 24 14 352 328 277 267 259 254 256 241 237 237 230 229 228 236 240 239 239 240 239 234 230 232 228 226 232 232 228 225 230 229 225
326 349 39 353 224 322 318 304 187 248 226 267 311 313 300 230 210 210 110 273 239 90 39 356 244 185 189 79 50 59 54 48 50 48 43 41 40 39 34 30 31 31 30 29 28 26 22 19 16 18 21 27 27 32 30 14 348 322 292 267 250 254 239 246 248 237 242 239 239 241 241 241 241 239 233 229 236 232 230 233 232 230 224 224 227 228
4 18 327 351 161 3 346 343 26 279 313 356 352 314 298 347 263 106 173 74 55 54 14 354 161 167 63 65 61 53 48 50 51 50 48 45 43 40 34 30 29 29 28 27 25 22 20 20 15 14 8 13 18 15 11 13 3 356 345 336 326 317 307 267 261 252 243 237 233 236 240 242 242 240 233 232 240 240 242 236 228 223 227 222 221 225
340 265 9 356 216 8 359 17 352 358 351 356 9 342 350 6 30 29 22 37 323 118 28 32 267 81 95 57 33 54 47 48 49 51 47 45 44 40 35 31 29 29 29 28 26 24 22 18 14 11 11 10 10 12 8 5 6 359 357 358 356 341 341 325 294 266 246 234 233 229 233 240 242 241 239 237 243 245 245 244 241 232 231 229 224 226
350 342 31 8 2 347 359 25 321 294 305 337 328 345 30 21 10 6 2 359 358 350 3 352 224 356 88 103 44 40 39 43 48 48 45 45 46 42 38 35 30 25 23 22 24 25 22 17 14 12 11 10 9 9 7 7 4 360 2 2 358 352 347 342 330 309 286 266 243 233 232 235 236 241 243 243 241 242 245 243 240 228 234 241 230 218
324 272 298 5 307 315 348 341 315 308 260 324 320 272 11 10 321 306 355 318 343 342 100 44 52 75 96 126 47 19 30 39 33 37 34 36 34 34 34 32 26 22 19 16 17 20 21 20 15 13 12 11 10 9 8 8 5 3 3 1 0 358 353 348 339 328 313 300 288 272 255 243 237 239 247 249 245 244 242 248 248 240 233 229 228 227
325 322 1 336 319 1 352 335 349 342 12 333 328 28 342 307 256 306 235 226 253 226 77 65 112 96 125 144 44 22 26 24 25 27 28 26 26 30 31 26 23 19 17 17 16 16 17 19 21 17 13 11 10 10 11 9 7 5 3 2 2 1 358 357 351 342 329 319 310 297 285 277 267 253 240 242 245 248 249 247 247 252 242 232 221 223
332 288 302 358 355 349 348 320 275 9 315 288 15 352 315 265 243 325 335 332 315 3 95 138 89 146 193 120 1 25 24 19 20 23 23 26 25 26 21 19 18 17 16 18 20 19 17 18 19 19 18 15 12 9 8 8 8 8 7 5 4 1 1 358 353 351 348 339 327 317 304 290 281 275 270 259 250 251 253 252 253 253 249 233 225 221
324 304 301 145 344 339 338 319 216 21 21 43 44 304 322 30 23 11 307 4 354 4 347 66 320 117 34 68 12 26 24 15 16 17 21 23 22 21 18 16 16 17 18 20 20 19 17 15 14 15 16 15 14 11 7 4 6 6 9 9 9 3 1 1 356 355 348 350 342 333 324 317 304 285 274 271 265 257 259 257 252 249 250 249 243 239
297 301 303 128 4 321 325 345 34 338 43 154 229 27 13 270 15 358 31 308 305 317 341 56 355 74 50 76 62 49 40 30 23 26 27 24 19 15 15 12 12 16 22 21 20 19 17 14 12 11 9 10 10 9 6 4 3 5 3 2 3 360 1 359 360 358 354 349 345 336 331 325 317 309 300 286 277 260 243 248 258 255 249 247 244 239
326 335 288 322 330 298 56 21 44 4 4 8 20 22 20 10 217 235 37 1 10 333 331 322 359 86 81 63 57 58 47 40 30 31 31 23 18 16 12 12 13 19 19 18 16 15 13 12 10 9 7 5 4 7 7 7 3 0 360 360 359 357 355 359 357 355 353 347 342 339 335 332 328 317 310 304 294 283 272 256 249 255 254 252 243 235
309 295 289 306 326 5 58 98 342 320 9 44 42 39 8 12 12 1 35 88 12 333 336 325 306 65 103 52 58 57 55 47 39 30 27 24 18 11 10 10 17 19 17 16 12 9 8 6 5 5 5 5 4 3 4 2 2 1 0 356 355 355 356 354 354 353 350 345 339 341 334 330 326 325 319 309 301 293 286 279 270 263 262 259 256 245
336 296 289 304 311 303 305 340 333 304 345 34 42 48 21 26 359 2 317 11 330 230 300 293 315 219 127 66 57 57 53 52 45 36 28 19 17 10 7 9 15 18 15 12 11 10 8 6 4 1 2 3 3 1 360 359 360 358 355 355 353 351 353 351 348 348 348 344 340 338 335 332 333 328 324 318 308 298 292 289 284 277 270 263 262 253
306 316 310 293 300 285 49 75 101 57 232 249 71 49 27 23 358 331 309 333 304 307 281 240 236 171 185 172 54 54 51 46 41 35 22 18 15 8 7 8 9 8 10 8 9 11 6 7 3 4 2 1 0 359 358 354 353 352 353 352 349 349 348 350 349 347 345 343 340 336 335 336 335 333 332 325 319 312 307 299 290 282 273 265 261 257
309 130 311 299 308 315 153 169 170 203 219 23 325 348 19 9 1 328 303 296 263 258 273 288 263 193 168 297 355 20 21 23 24 26 18 8 8 4 0 2 6 4 5 5 5 5 5 5 6 4 359 358 356 354 354 353 350 348 347 348 347 345 346 346 346 345 344 342 337 335 334 334 337 336 334 331 325 318 313 308 299 291 283 276 268 260
266 327 327 346 348 344 345 345 344 329 333 316 296 267 329 329 331 320 255 322 269 22 258 220 254 171 102 338 349 9 4 3 11 13 12 6 356 357 354 350 359 1 2 3 1 2 2 2 359 0 358 354 352 351 349 349 347 345 342 342 344 342 343 344 344 343 340 339 337 334 336 337 338 338 333 330 328 325 320 314 308 302 294 287 279 269
286 279 260 256 255 264 287 300 317 328 311 299 299 301 300 291 288 280 286 257 249 279 258 249 269 289 292 297 323 352 358 350 350 358 360 356 350 349 351 345 351 354 0 2 359 357 357 358 356 354 353 351 348 346 344 342 343 342 341 339 341 341 339 341 342 340 339 336 334 334 336 337 335 331 331 330 327 322 316 313 308 304 298 293 287 281
10 290 259 262 250 253 274 287 297 304 290 287 290 291 298 295 282 246 238 241 6 317 275 258 253 259 277 298 324 345 347 339 343 348 347 347 344 342 344 339 338 353 355 355 357 357 354 352 350 351 349 347 345 342 341 340 339 339 340 337 335 337 338 338 338 337 336 336 334 334 333 332 328 327 329 326 321 322 321 318 316 312 306 302 292 283
336 278 344 309 266 270 277 280 287 288 277 277 279 280 280 282 277 251 242 246 252 245 254 256 286 293 288 296 319 352 356 335 337 341 340 332 337 340 339 336 335 347 352 351 350 350 349 351 348 345 344 342 341 341 340 338 338 337 334 333 334 336 337 336 335 333 333 334 333 331 330 327 328 327 324 324 326 326 329 326 319 317 311 305 297 290
244 256 263 299 288 285 279 277 282 280 279 277 268 269 272 276 271 264 266 257 236 243 257 274 283 279 280 291 318 338 338 328 327 332 336 343 338 332 332 330 335 344 348 344 343 345 345 345 344 341 340 337 338 337 337 336 335 334 333 330 330 333 334 336 333 331 330 330 329 328 328 327 327 327 327 325 325 326 326 328 325 321 318 310 302 295
336 308 50 299 289 284 282 288 270 262 276 284 282 276 274 270 270 262 257 256 250 259 261 268 273 276 282 41 44 346 316 310 318 333 339 334 331 328 330 329 336 342 339 340 340 339 340 339 338 338 336 334 332 333 331 331 330 329 326 327 328 327 330 332 329 328 328 326 326 325 326 327 326 327 327 325 324 326 327 327 324 317 306 306 306 296
332 281 71 20 313 284 292 304 297 294 295 285 283 284 268 247 247 242 228 221 211 241 259 262 268 272 293 75 357 327 331 329 332 334 334 332 324 319 324 331 339 339 338 338 337 335 334 335 334 334 331 329 328 327 327 326 326 324 323 323 324 324 323 324 323 324 323 323 323 324 324 325 326 326 325 325 326 326 323 317 316 316 314 300 299 288
231 269 300 331 304 266 304 314 306 312 293 270 255 263 217 188 209 216 231 230 231 265 286 272 266 305 357 351 321 317 330 325 328 334 328 322 317 316 313 325 333 335 338 335 330 327 329 331 331 328 326 325 324 323 322 321 318 318 318 319 319 320 321 321 320 319 318 318 320 322 322 322 324 324 324 324 322 322 322 322 320 321 325 322 314 298
163 223 257 179 257 280 315 311 305 311 294 323 68 351 196 196 212 250 266 268 276 261 264 284 290 329 295 297 300 311 324 320 316 313 310 304 303 307 302 318 327 333 331 326 322 320 321 323 324 322 320 320 319 318 315 314 311 309 313 314 316 317 317 318 319 318 319 319 316 317 319 321 320 320 321 322 322 321 320 320 318 316 313 312 314 313
185 182 226 201 249 288 320 296 280 257 247 29 317 285 245 247 251 257 272 277 277 266 255 262 255 246 257 284 297 302 303 303 303 300 297 285 285 280 297 316 328 326 322 320 316 314 314 315 316 318 317 316 317 315 315 312 311 310 311 314 314 314 313 314 315 317 316 316 317 315 315 319 319 318 317 319 320 320 320 318 317 318 320 319 317 313
206 190 211 227 232 269 274 292 325 242 358 311 290 287 286 267 267 265 265 253 241 236 241 250 244 231 255 281 294 302 302 303 296 279 268 270 239 250 313 315 317 317 315 313 309 304 306 309 311 312 312 311 310 312 312 310 311 311 309 311 310 308 309 310 311 312 314 312 314 317 318 318 317 316 316 317 317 317 317 318 317 318 318 316 311 305
203 176 202 246 178 248 253 267 249 306 306 284 266 122 59 32 49 307 292 283 237 229 229 248 230 240 271 294 305 307 312 306 298 302 245 187 186 238 290 303 307 305 304 302 298 295 295 297 301 304 305 305 308 308 308 307 310 310 310 310 308 307 307 309 310 311 310 310 312 314 316 317 315 313 314 315 313 313 312 314 315 315 319 315 314 313
200 195 195 213 232 198 282 296 301 298 286 246 157 117 116 102 63 84 348 286 258 256 230 198 227 250 283 299 306 312 312 301 298 308 275 248 248 269 279 282 288 289 292 293 291 286 286 290 293 296 299 301 301 301 303 306 308 309 308 308 308 308 306 307 306 308 308 307 311 311 312 312 312 311 311 311 309 308 306 305 303 305 310 309 309 307
211 228 287 228 274 272 253 267 262 259 251 270 264 147 118 98 94 353 297 284 288 210 151 190 221 268 282 298 300 302 302 297 296 301 315 286 287 291 288 283 278 279 281 283 284 285 287 289 291 291 292 291 294 298 302 304 305 305 304 305 306 306 305 305 305 307 307 307 308 308 307 307 307 306 306 306 305 306 305 305 304 302 304 303 303 300
183 210 212 241 230 222 244 255 260 212 263 261 154 139 139 123 11 335 296 292 118 155 165 174 262 291 293 287 285 282 291 294 298 304 310 299 290 288 280 282 283 283 280 279 277 278 282 286 289 289 290 291 293 297 300 300 301 299 299 301 303 303 303 304 307 306 305 305 304 305 305 304 303 303 302 303 304 304 300 302 303 301 301 301 301 301
185 220 203 222 225 231 228 257 270 267 251 257 264 270 264 128 203 243 237 274 138 167 188 249 272 268 278 290 294 291 289 286 291 293 294 290 287 284 279 275 276 277 276 274 274 275 281 284 283 284 287 290 291 293 295 296 298 298 297 298 300 298 300 306 307 305 305 304 304 303 302 303 302 301 301 301 300 300 298 295 295 299 300 300 301 300
206 175 257 196 234 226 228 241 251 274 265 263 267 243 126 150 223 232 269 93 149 200 222 237 271 290 293 289 288 283 287 287 283 283 284 285 281 279 280 282 283 281 276 273 271 272 276 280 283 284 287 289 291 292 293 294 293 295 297 296 294 295 304 309 305 305 306 304 302 301 302 302 301 300 299 299 300 300 298 296 294 292 294 293 295 296
177 169 203 195 210 205 192 246 293 283 267 198 194 116 162 208 242 250 294 210 209 259 282 285 281 282 285 284 281 281 282 285 287 289 289 287 286 284 284 286 287 287 288 287 284 280 280 283 286 286 288 291 291 291 291 292 291 290 292 292 292 300 309 305 305 306 306 305 303 300 300 299 300 299 298 297 298 298 296 295 295 292 288 287 289 288
157 230 215 221 181 212 174 188 212 215 81 161 174 237 193 206 253 274 276 284 266 278 284 287 276 270 273 280 286 289 290 289 287 287 288 286 287 286 282 282 281 281 281 280 281 283 281 281 282 284 287 289 290 291 291 291 289 288 289 289 295 304 305 302 303 304 305 302 298 299 298 300 300 300 297 295 295 295 291 290 292 292 289 285 279 280
174 208 180 226 184 198 203 220 231 151 243 212 213 243 262 248 250 260 275 281 288 283 283 278 284 279 274 279 284 286 288 283 285 288 290 291 291 290 288 284 283 283 281 279 277 278 277 276 281 284 285 287 290 290 289 288 287 288 285 288 302 303 303 303 303 302 299 296 295 296 297 298 295 293 292 289 289 288 289 287 289 290 291 290 283 275
189 212 214 253 244 235 248 245 263 264 255 248 229 225 246 261 264 265 264 270 265 271 275 277 282 285 284 280 282 280 279 284 283 285 285 286 287 286 283 281 277 275 275 277 276 274 275 279 281 282 284 287 288 289 289 288 287 285 284 295 303 302 302 301 299 298 297 295 294 294 295 294 292 289 287 287 286 283 281 282 285 286 287 286 284 281
234 224 226 238 219 179 258 211 235 245 248 250 257 257 252 248 257 258 260 257 265 269 271 271 274 277 281 282 279 282 286 288 287 284 283 282 278 279 282 284 281 277 277 278 281 285 285 283 283 283 285 287 288 290 291 289 288 285 292 299 304 302 298 298 299 298 295 292 292 294 295 295 293 291 291 288 286 283 282 282 283 284 284 283 283 283
254 199 227 235 232 225 246 247 251 249 241 244 256 264 263 262 258 255 252 256 260 264 266 270 273 274 276 273 274 277 282 286 287 287 285 284 282 279 278 277 276 277 268 268 278 288 289 283 281 283 286 286 287 291 293 290 288 289 294 298 300 300 306 301 294 292 290 288 289 290 290 291 290 289 288 287 286 287 285 282 280 280 277 280 280 283
198 122 226 186 227 245 256 259 253 255 259 258 255 254 256 258 260 258 257 260 257 260 263 262 260 268 270 271 277 280 280 279 278 280 280 283 282 281 281 281 278 276 270 263 276 289 286 290 288 286 286 283 284 289 289 287 287 287 290 294 300 316 305 293 289 288 285 284 283 283 285 286 287 287 286 287 286 283 281 282 284 280 281 274 271 271
204 223 216 234 256 252 241 246 241 260 262 248 244 235 241 251 256 258 264 265 259 260 259 265 267 262 259 259 265 269 274 278 279 280 280 280 282 282 282 282 281 279 271 270 276 280 282 283 282 281 279 279 282 283 281 283 284 286 288 297 308 304 290 285 286 286 283 282 281 281 283 284 285 284 285 289 292 294 290 278 270 274 275 280 272 262
210 227 203 229 234 249 240 249 250 247 263 267 263 257 266 269 271 273 271 271 267 263 269 272 275 274 272 271 266 267 269 275 279 282 283 284 284 284 283 284 285 286 285 284 285 282 276 279 282 281 278 275 278 279 278 278 280 285 293 306 298 292 284 281 282 281 280 279 276 281 288 291 289 285 284 281 280 281 282 287 284 266 264 265 269 270